TimeAKST,TemperatureF,Dew PointF,Humidity,Sea Level PressureIn,VisibilityMPH,Wind Direction,Wind SpeedMPH,Gust SpeedMPH,PrecipitationIn,Events,Conditions,WindDirDegrees,DateUTC
12:53 AM,37.0,26.1,65,30.06,10.0,SW,15.0,-,N/A,,Overcast,220,2013-02-17 09:53:00
1:53 AM,36.0,27.0,70,30.05,10.0,SSW,23.0,33.4,N/A,,Overcast,210,2013-02-17 10:53:00
2:23 AM,35.6,26.6,70,30.05,10.0,SSW,18.4,28.8,N/A,,Overcast,210,2013-02-17 11:23:00
2:31 AM,37.4,26.6,65,30.03,10.0,SSW,18.4,26.5,N/A,,Overcast,210,2013-02-17 11:31:00
3:53 AM,37.0,25.0,62,30.02,10.0,SW,19.6,28.8,N/A,,Overcast,220,2013-02-17 12:53:00
4:53 AM,37.0,25.0,62,30.00,10.0,SSW,23.0,-,N/A,,Overcast,210,2013-02-17 13:53:00
5:53 AM,36.0,27.0,70,29.97,10.0,SSW,25.3,32.2,N/A,,Overcast,210,2013-02-17 14:53:00
6:53 AM,35.1,27.0,72,29.95,10.0,SSW,24.2,32.2,N/A,,Overcast,200,2013-02-17 15:53:00
7:53 AM,35.1,27.0,72,29.93,10.0,SSW,20.7,29.9,N/A,,Overcast,210,2013-02-17 16:53:00
8:53 AM,35.1,28.0,76,29.91,10.0,SSW,17.3,27.6,N/A,,Overcast,200,2013-02-17 17:53:00
9:53 AM,35.1,28.9,78,29.89,10.0,SSW,20.7,28.8,N/A,,Overcast,200,2013-02-17 18:53:00
10:53 AM,36.0,28.0,73,29.88,10.0,SSW,17.3,27.6,N/A,,Overcast,200,2013-02-17 19:53:00
11:53 AM,36.0,28.0,73,29.86,10.0,SSW,16.1,-,N/A,,Overcast,200,2013-02-17 20:53:00
12:53 PM,36.0,28.9,76,29.84,10.0,SSW,23.0,-,N/A,,Overcast,210,2013-02-17 21:53:00
1:53 PM,36.0,30.0,79,29.83,10.0,SSW,11.5,24.2,N/A,,Overcast,200,2013-02-17 22:53:00
2:53 PM,36.0,30.0,79,29.81,10.0,SSW,13.8,18.4,N/A,,Overcast,200,2013-02-17 23:53:00
3:53 PM,36.0,28.9,76,29.80,10.0,SSW,8.1,-,N/A,,Overcast,210,2013-02-18 00:53:00
4:53 PM,36.0,28.9,76,29.78,10.0,SW,11.5,-,N/A,,Overcast,220,2013-02-18 01:53:00
5:53 PM,35.1,30.0,82,29.77,10.0,SSW,4.6,-,N/A,,Overcast,210,2013-02-18 02:53:00
6:31 PM,33.8,30.2,87,29.76,10.0,Calm,Calm,-,N/A,,Overcast,0,2013-02-18 03:31:00
6:39 PM,33.8,30.2,87,29.76,10.0,Calm,Calm,-,N/A,,Overcast,0,2013-02-18 03:39:00
6:53 PM,34.0,30.0,85,29.76,8.0,Calm,Calm,-,N/A,,Overcast,0,2013-02-18 03:53:00
8:00 PM,33.8,30.2,87,29.74,2.5,Calm,Calm,-,0.00,Snow,Light Snow,0,2013-02-18 05:00:00
8:03 PM,33.8,30.2,87,29.73,3.0,Calm,Calm,-,0.00,Snow,Light Snow,0,2013-02-18 05:03:00
8:16 PM,33.8,30.2,87,29.73,4.0,Calm,Calm,-,0.00,Snow,Light Snow,0,2013-02-18 05:16:00
8:53 PM,33.1,30.9,92,29.72,2.5,Calm,Calm,-,0.00,Snow,Light Snow,0,2013-02-18 05:53:00
9:03 PM,33.8,30.2,87,29.72,4.0,Calm,Calm,-,0.00,Snow,Light Snow,0,2013-02-18 06:03:00
9:26 PM,33.8,32.0,93,29.71,3.0,Calm,Calm,-,0.00,Snow,Light Snow,0,2013-02-18 06:26:00
9:33 PM,33.8,30.2,87,29.71,2.5,Calm,Calm,-,0.01,Snow,Light Snow,0,2013-02-18 06:33:00
9:38 PM,33.8,30.2,87,29.71,3.0,Calm,Calm,-,0.01,Snow,Light Snow,0,2013-02-18 06:38:00
9:53 PM,33.1,30.0,89,29.71,5.0,Calm,Calm,-,0.01,Snow,Light Snow,0,2013-02-18 06:53:00
10:53 PM,32.0,30.9,96,29.70,6.0,Calm,Calm,-,0.00,Snow,Light Snow,0,2013-02-18 07:53:00
11:53 PM,32.0,30.0,92,29.69,9.0,Calm,Calm,-,0.00,,Overcast,0,2013-02-18 08:53:00